Content
SEND FEEDBACK

Daily
Averages
Monthly
Summary
Netherlands

HAARLEM, NETHERLANDS


Home > Europe > Netherlands
Elevation: 62 feet     Latitude: 52 28N     Longitude: 004 35E

WEATHER
 
SELECT A DAY
Number of Records: 302,767;   Date Range: 7/1/96 - 8/10/14
 
SHARE

PRINT THIS DATA

[ ← Previous Day ]
WEATHER ALMANAC - JANUARY 18, 2013
[ Next Day → ]
[ °C ]   °F
Weather ElementAverageHighLow
Temperature29.4 °F32 °F (2:25 pm)28 °F (1:00 am)
Dewpoint24.6 °F26.6 °F (7:55 am)23 °F (12:55 am)
Humidity81.3 %93 % (7:55 am)71 % (4:00 pm)
Barometer29.82 in30.05 in (1:00 am)29.62 in (10:55 pm)
Wind Speed10.5 mph15 mph (12:55 pm)
Weather ElementAverage
Visibility4.9 mi
Wind DirectionE (95.5 °)

Weather ElementTotal
Precipitation---
Heating Degree Days35 (Base 65)
Averaged from 55 records on January 18, 2013
WEATHER CONDITIONS BREAKOUT
WIND DIRECTION BREAKOUT
WEATHER BY HOUR - JANUARY 18, 2013
[ °C ]   °F
Local TimeTemperatureDewpointHumidityBarometerVisibilityWind DirectionWind SpeedGust SpeedPrecipitationEventsConditions
12:55 AM28.4 °F23.0 °F80 %30.04 in3.7 miEast (80°)4.6 mphMostly Cloudy
1:00 AM28.0 °F24.0 °F77 %30.05 in3.0 miEast (80°)4.5 mphSnowLight Snow Showers
1:25 AM28.4 °F23.0 °F80 %30.01 in3.7 miEast (80°)4.6 mphSnowLight Snow
1:55 AM28.4 °F23.0 °F80 %30.01 in5.6 miEast (80°)8.1 mphMostly Cloudy
2:25 AM28.4 °F23.0 °F80 %30.01 in5.6 miEast (90°)8.1 mphOvercast
2:55 AM28.4 °F23.0 °F80 %30.01 in5.6 miEast (90°)8.1 mphOvercast
3:25 AM28.4 °F23.0 °F80 %29.98 in5.6 miEast (100°)6.9 mphOvercast
3:55 AM28.4 °F24.8 °F86 %29.98 in5.6 miEast (90°)6.9 mphOvercast
4:00 AM28.0 °F24.0 °F78 %29.99 in4.0 miEast (90°)6.7 mphLight Haze
4:25 AM28.4 °F24.8 °F86 %29.98 in4.3 miEast (90°)6.9 mphOvercast
4:55 AM28.4 °F24.8 °F86 %29.95 in4.3 miEast (100°)8.1 mphOvercast
5:25 AM28.4 °F24.8 °F86 %29.95 in4.3 miEast (100°)6.9 mphOvercast
5:55 AM28.4 °F24.8 °F86 %29.95 in3.7 miEast (100°)9.2 mphOvercast
6:25 AM28.4 °F24.8 °F86 %29.92 in3.1 miEast (100°)8.1 mphSnowLight Snow
6:55 AM28.4 °F24.8 °F86 %29.92 in3.1 miEast (90°)8.1 mphSnowLight Snow
7:00 AM29.0 °F26.0 °F81 %29.94 in3.0 miEast (90°)6.7 mphSnowSnow
7:25 AM28.4 °F24.8 °F86 %29.92 in3.1 miEast (100°)8.1 mphSnowLight Snow
7:55 AM28.4 °F26.6 °F93 %29.92 in2.5 miEast (90°)8.1 mphSnowLight Snow
8:25 AM28.4 °F26.6 °F93 %29.92 in6.2 miEast (90°)8.1 mphSnowLight Snow
8:55 AM28.4 °F24.8 °F86 %29.89 in2.5 miEast (100°)6.9 mphScattered Clouds
9:25 AM28.4 °F24.8 °F86 %29.89 in3.1 miEast (100°)8.1 mphPartly Cloudy
9:55 AM28.4 °F24.8 °F86 %29.89 in3.1 miEast (100°)11.5 mphMist
10:00 AM29.0 °F25.0 °F80 %29.89 in4.0 miEast (100°)11.2 mphMist
10:25 AM28.4 °F24.8 °F86 %29.89 in3.7 miEast (100°)10.4 mph
10:55 AM30.2 °F24.8 °F80 %29.86 in3.7 miESE (110°)9.2 mph
11:25 AM30.2 °F24.8 °F80 %29.86 in4.3 miEast (90°)12.7 mph
11:55 AM30.2 °F24.8 °F80 %29.86 in4.3 miEast (100°)12.7 mph
12:25 PM30.2 °F26.6 °F86 %29.83 in4.3 miEast (100°)13.8 mph
12:55 PM30.2 °F26.6 °F86 %29.80 in4.3 miEast (100°)15.0 mph
1:00 PM30.0 °F26.0 °F78 %29.82 in5.0 miEast (100°)13.4 mphMist
1:25 PM30.2 °F24.8 °F80 %29.80 in4.3 miEast (90°)12.7 mph
1:55 PM28.4 °F24.8 °F86 %29.77 in5.0 miEast (90°)11.5 mph
2:25 PM32.0 °F24.8 °F75 %29.77 in6.2 miEast (100°)11.5 mphPartly Cloudy
2:55 PM32.0 °F24.8 °F75 %29.77 in6.2 miESE (110°)9.2 mphPartly Cloudy
3:25 PM30.2 °F24.8 °F80 %29.74 in6.2 miEast (100°)12.7 mphPartly Cloudy
3:55 PM30.2 °F24.8 °F80 %29.74 in6.2 miEast (90°)11.5 mphPartly Cloudy
4:00 PM30.0 °F24.0 °F71 %29.76 in6.0 miEast (100°)11.2 mphLight Haze
4:25 PM30.2 °F24.8 °F80 %29.74 in5.6 miEast (100°)12.7 mphPartly Cloudy
4:55 PM30.2 °F24.8 °F80 %29.71 in5.0 miEast (100°)11.5 mphMostly Cloudy
5:25 PM30.2 °F24.8 °F80 %29.71 in5.0 miEast (90°)11.5 mphMostly Cloudy
5:55 PM30.2 °F24.8 °F80 %29.71 in5.6 miEast (100°)12.7 mphMostly Cloudy
6:25 PM30.2 °F24.8 °F80 %29.68 in5.6 miEast (100°)12.7 mphMostly Cloudy
6:55 PM30.2 °F24.8 °F80 %29.68 in5.6 miEast (90°)12.7 mphMostly Cloudy
7:00 PM30.0 °F25.0 °F76 %29.70 in6.0 miEast (90°)11.2 mphLight Haze
7:25 PM30.2 °F24.8 °F80 %29.68 in5.6 miEast (100°)11.5 mphMostly Cloudy
7:55 PM30.2 °F24.8 °F80 %29.65 in6.2 miEast (90°)13.8 mphOvercast
8:25 PM30.2 °F24.8 °F80 %29.65 in6.2 miEast (100°)13.8 mphOvercast
8:55 PM30.2 °F24.8 °F80 %29.65 in6.2 miEast (100°)11.5 mphOvercast
9:25 PM30.2 °F24.8 °F80 %29.65 in6.2 miEast (100°)11.5 mphOvercast
9:55 PM30.2 °F24.8 °F80 %29.65 in6.2 miEast (100°)13.8 mphOvercast
10:00 PM30.0 °F25.0 °F73 %29.66 in7.0 miEast (100°)13.4 mphOvercast
10:25 PM30.2 °F24.8 °F80 %29.65 in6.2 miEast (100°)15.0 mphOvercast
10:55 PM30.2 °F23.0 °F75 %29.62 in6.2 miEast (100°)15.0 mphOvercast
11:25 PM30.2 °F23.0 °F75 %29.62 in6.2 miEast (90°)15.0 mphOvercast
11:55 PM28.4 °F23.0 °F80 %29.62 in6.2 miEast (90°)15.0 mphOvercast
Hourly data recorded from EHAM, located miles away from Haarlem, Netherlands







STORIES FROM OUR PARTNERS